This is the latest recevied weather packets stored in our database for station/object N8ESC. If no packets are shown the sender has not sent any weather packets the latest 10 day(s).
| Time | Temp. | Humidity | Pressure | Rain* | Wind** | Luminosity | Snow |
|---|---|---|---|---|---|---|---|
| 1777614671 | 1.67° C | 73% | 1015.6 hPa | 0 mm | - | 0 W/m² | - |
| 1777614366 | 2.22° C | 74% | 1015.7 hPa | 0 mm | - | 0 W/m² | - |
| 1777614061 | 2.22° C | 75% | 1015.6 hPa | 0 mm | - | 0 W/m² | - |
| 1777613756 | 2.22° C | 76% | 1015.7 hPa | 0 mm | - | 0 W/m² | - |
| 1777613456 | 2.22° C | 76% | 1015.4 hPa | 0 mm | - | 0 W/m² | - |
| 1777613151 | 2.22° C | 75% | 1015.6 hPa | 0 mm | - | 0 W/m² | - |
| 1777612848 | 2.22° C | 75% | 1015.5 hPa | 0 mm | - | 0 W/m² | - |
| 1777612545 | 2.22° C | 75% | 1015.6 hPa | 0 mm | - | 0 W/m² | - |
| 1777612239 | 2.22° C | 75% | 1015.7 hPa | 0 mm | - | 0 W/m² | - |
| 1777611934 | 2.22° C | 75% | 1015.5 hPa | 0 mm | - | 0 W/m² | - |
| 1777611630 | 2.22° C | 74% | 1015.3 hPa | 0 mm | - | 0 W/m² | - |
| 1777611327 | 2.78° C | 74% | 1015.4 hPa | 0 mm | - | 0 W/m² | - |
| 1777611024 | 2.78° C | 72% | 1015.5 hPa | 0 mm | - | 0 W/m² | - |
| 1777610720 | 2.78° C | 72% | 1015.5 hPa | 0 mm | - | 0 W/m² | - |
| 1777610419 | 2.78° C | 73% | 1015.5 hPa | 0 mm | - | 0 W/m² | - |
| 1777610115 | 2.78° C | 74% | 1015.2 hPa | 0 mm | - | 0 W/m² | - |
| 1777609812 | 2.78° C | 76% | 1015.3 hPa | 0 mm | - | 0 W/m² | - |
| 1777609509 | 2.78° C | 75% | 1015.4 hPa | 0 mm | - | 0 W/m² | - |
| 1777609206 | 2.78° C | 73% | 1015.5 hPa | 0 mm | - | 0 W/m² | - |
| 1777608904 | 2.78° C | 71% | 1015.4 hPa | 0 mm | - | 0 W/m² | - |
| 1777608600 | 2.78° C | 69% | 1015.4 hPa | 0 mm | - | 0 W/m² | - |
| 1777608297 | 2.78° C | 72% | 1015.3 hPa | 0 mm | - | 0 W/m² | - |
| 1777607996 | 2.78° C | 68% | 1015.5 hPa | 0 mm | - | 0 W/m² | - |
| 1777607696 | 2.78° C | 70% | 1015.5 hPa | 0 mm | - | 0 W/m² | - |
| 1777607393 | 3.33° C | 70% | 1015.6 hPa | 0 mm | - | 0 W/m² | - |
* Rain latest hour (hover to see other rain measurements)
** Current wind speed in m/s (hover to see current wind gust speed)